Weather History for KELO - January, 2014

Change the Weather History Date:

Monday, January 6, 2014

  Actual Average Record
Temperature  
Mean Temperature -25 °F -  
Max Temperature -18 °F 15 °F 37 °F (2008)
Min Temperature -32 °F 0 °F -36 °F (2005)
Degree Days  
Heating Degree Days 90    
Moisture  
Dew Point -33 °F    
Average Humidity 69    
Maximum Humidity 76    
Minimum Humidity 52    
Precipitation  
Precipitation 0.00 in - - ()
Sea Level Pressure  
Sea Level Pressure 29.95 in    
Wind  
Wind Speed 8 mph (WNW)    
Max Wind Speed 15 mph    
Max Gust Speed 22 mph    
Visibility 10 miles    
Events      
Averages and records for this station are not official NWS values.
T = Trace of Precipitation, MM = Missing Value Source: NWS Daily Summary

Daily Weather History Graph

Daily Weather History Graph

Search for Another Location

Airport or City:

Trip Planner

Search our weather history database for the weather conditions in past years. The results will help you decide how hot, cold, wet, or windy it might be!

Date:

Astronomy

Jan. 06, 2014 Rise Set
Actual Time 7:55 AM CST 4:31 PM CST
Civil Twilight 7:20 AM CST 5:06 PM CST
Nautical Twilight 6:41 AM CST 5:45 PM CST
Astronomical Twilight 6:03 AM CST 6:23 PM CST
Moon 10:43 AM CST (1/6) 11:35 PM CST (1/6)
Length of Visible Light 9h 46m
Length of Day
8h 35m
Waxing Crescent, 35% of the Moon is Illuminated
Jan 6
Waxing Crescent
Jan 7
First Quarter
Jan 15
Full
Jan 23
Last Quarter
Jan 30
New

Hourly Weather History & Observations

Time (CST) Temp. Windchill Dew Point Humidity Pressure Visibility Wind Dir Wind Speed Gust Speed Precip Events Conditions
12:12 AM -27.4 °F -44.1 °F -34.6 °F 69% - 10.0 mi WNW 5.8 mph - N/A   Mostly Cloudy
12:33 AM -27.4 °F -44.1 °F -34.6 °F 69% - 10.0 mi WNW 5.8 mph - N/A   Mostly Cloudy
12:52 AM -27.4 °F -49.0 °F -34.6 °F 69% 30.07 in 10.0 mi WNW 9.2 mph - N/A   Mostly Cloudy
1:13 AM -27.4 °F -47.6 °F -34.6 °F 69% 30.06 in 10.0 mi NW 8.1 mph 16.1 mph N/A   Scattered Clouds
1:33 AM -27.4 °F -49.0 °F -34.6 °F 69% 30.07 in 10.0 mi WNW 9.2 mph 17.3 mph N/A   Scattered Clouds
1:52 AM -27.4 °F -49.0 °F -36.4 °F 62% 30.06 in 10.0 mi WNW 9.2 mph - N/A   Scattered Clouds
2:13 AM -29.2 °F -51.2 °F -36.4 °F 68% 30.06 in 10.0 mi WNW 9.2 mph - N/A   Clear
2:33 AM -29.2 °F -49.7 °F -36.4 °F 68% 30.06 in 10.0 mi WNW 8.1 mph - N/A   Clear
2:52 AM -29.2 °F -49.7 °F -36.4 °F 68% 30.06 in 10.0 mi WNW 8.1 mph - N/A   Clear
3:13 AM -29.2 °F -49.7 °F -36.4 °F 68% 30.05 in 10.0 mi WNW 8.1 mph - N/A   Clear
3:33 AM -31.0 °F -51.9 °F -36.4 °F 75% 30.05 in 10.0 mi WNW 8.1 mph - N/A   Clear
3:52 AM -31.0 °F -50.3 °F -36.4 °F 75% - 10.0 mi WNW 6.9 mph - N/A   Clear
4:13 AM -31.0 °F -50.3 °F -38.2 °F 68% - 10.0 mi WNW 6.9 mph - N/A   Clear
4:33 AM -32.8 °F -48.2 °F -38.2 °F 75% - 10.0 mi WNW 4.6 mph - N/A   Clear
4:52 AM -32.8 °F -50.5 °F -38.2 °F 75% - 10.0 mi WNW 5.8 mph - N/A   Clear
5:13 AM -32.8 °F -48.2 °F -38.2 °F 75% - 10.0 mi West 4.6 mph - N/A   Clear
5:33 AM -32.8 °F -45.3 °F -38.2 °F 75% - 10.0 mi West 3.5 mph - N/A   Clear
5:52 AM -32.8 °F -48.2 °F -38.2 °F 75% - 10.0 mi West 4.6 mph - N/A   Clear
6:13 AM -32.8 °F -45.3 °F -38.2 °F 75% - 10.0 mi WNW 3.5 mph - N/A   Clear
6:32 AM -32.8 °F -45.3 °F -38.2 °F 75% - 10.0 mi WNW 3.5 mph - N/A   Clear
6:53 AM -32.8 °F -48.2 °F -38.2 °F 75% - 10.0 mi West 4.6 mph - N/A   Clear
7:13 AM -32.8 °F -45.3 °F -38.2 °F 75% - 10.0 mi West 3.5 mph - N/A   Clear
7:33 AM -32.8 °F -50.5 °F -38.2 °F 75% - 10.0 mi WNW 5.8 mph - N/A   Clear
7:53 AM -32.8 °F -50.5 °F -38.2 °F 75% - 10.0 mi West 5.8 mph - N/A   Clear
8:13 AM -31.0 °F -50.3 °F -38.2 °F 68% - 10.0 mi West 6.9 mph - N/A   Clear
8:33 AM -31.0 °F -48.4 °F -36.4 °F 75% - 10.0 mi West 5.8 mph - N/A   Clear
8:52 AM -29.2 °F -48.1 °F -36.4 °F 68% - 10.0 mi West 6.9 mph - N/A   Clear
9:13 AM -29.2 °F -51.2 °F -36.4 °F 68% - 10.0 mi WNW 9.2 mph 16.1 mph N/A   Clear
9:33 AM -27.4 °F -49.0 °F -34.6 °F 69% - 10.0 mi WNW 9.2 mph - N/A   Clear
9:52 AM -27.4 °F -50.3 °F -34.6 °F 69% - 10.0 mi WNW 10.4 mph 16.1 mph N/A   Clear
10:13 AM -25.6 °F -51.2 °F -34.6 °F 63% 30.00 in 10.0 mi WNW 13.8 mph 18.4 mph N/A   Clear
10:33 AM -25.6 °F -49.2 °F -34.6 °F 63% 29.99 in 10.0 mi WNW 11.5 mph 17.3 mph N/A   Clear
10:52 AM -23.8 °F -45.8 °F -34.6 °F 57% 29.98 in 7.0 mi WNW 10.4 mph 20.7 mph N/A   Clear
11:13 AM -23.8 °F -45.8 °F -32.8 °F 63% 29.97 in 7.0 mi WNW 10.4 mph 16.1 mph N/A   Clear
11:33 AM -23.8 °F -45.8 °F -32.8 °F 63% 29.97 in 3.0 mi WNW 10.4 mph 16.1 mph N/A   Haze
11:52 AM -20.2 °F -44.4 °F -32.8 °F 52% 29.95 in 7.0 mi WNW 13.8 mph 19.6 mph N/A   Clear
12:13 PM -22.0 °F -43.6 °F -32.8 °F 57% 29.95 in 7.0 mi West 10.4 mph - N/A   Clear
12:33 PM -20.2 °F -43.4 °F -31.0 °F 58% 29.94 in 7.0 mi WNW 12.7 mph 18.4 mph N/A   Clear
12:52 PM -18.4 °F -42.9 °F -29.2 °F 58% 29.93 in 10.0 mi WNW 15.0 mph - N/A   Clear
1:13 PM -18.4 °F -41.2 °F -29.2 °F 58% 29.93 in 10.0 mi West 12.7 mph 16.1 mph N/A   Clear
1:33 PM -18.4 °F -40.2 °F -29.2 °F 58% 29.92 in 10.0 mi West 11.5 mph 16.1 mph N/A   Clear
1:52 PM -18.4 °F -39.1 °F -29.2 °F 58% 29.92 in 7.0 mi WNW 10.4 mph 18.4 mph N/A   Scattered Clouds
2:13 PM -18.4 °F -39.1 °F -29.2 °F 58% 29.92 in 10.0 mi West 10.4 mph - N/A   Clear
2:33 PM -18.4 °F -40.2 °F -27.4 °F 63% 29.92 in 10.0 mi WNW 11.5 mph - N/A   Clear
2:53 PM -18.4 °F -37.9 °F -29.2 °F 58% 29.92 in 7.0 mi West 9.2 mph - N/A   Clear
3:12 PM -18.4 °F -39.1 °F -27.4 °F 63% 29.93 in 10.0 mi West 10.4 mph 16.1 mph N/A   Scattered Clouds
3:33 PM -18.4 °F -37.9 °F -27.4 °F 63% 29.93 in 7.0 mi WNW 9.2 mph 18.4 mph N/A   Scattered Clouds
3:53 PM -20.2 °F -38.8 °F -27.4 °F 69% 29.93 in 10.0 mi West 8.1 mph - N/A   Scattered Clouds
4:13 PM -18.4 °F -40.2 °F -27.4 °F 63% 29.93 in 10.0 mi WNW 11.5 mph 17.3 mph N/A   Mostly Cloudy
4:32 PM -18.4 °F -39.1 °F -27.4 °F 63% 29.93 in 10.0 mi West 10.4 mph 19.6 mph N/A   Mostly Cloudy
4:53 PM -20.2 °F -43.4 °F -27.4 °F 69% 29.93 in 10.0 mi West 12.7 mph 18.4 mph N/A   Clear
5:13 PM -20.2 °F -38.8 °F -27.4 °F 69% 29.92 in 10.0 mi West 8.1 mph 16.1 mph N/A   Clear
5:32 PM -20.2 °F -38.8 °F -27.4 °F 69% 29.92 in 10.0 mi West 8.1 mph - N/A   Clear
5:53 PM -20.2 °F -40.1 °F -27.4 °F 69% 29.92 in 10.0 mi West 9.2 mph - N/A   Clear
6:13 PM -22.0 °F -45.7 °F -27.4 °F 76% 29.92 in 10.0 mi West 12.7 mph 16.1 mph N/A   Clear
6:32 PM -22.0 °F -41.0 °F -29.2 °F 69% 29.92 in 10.0 mi West 8.1 mph - N/A   Clear
6:53 PM -22.0 °F -42.3 °F -29.2 °F 69% 29.92 in 10.0 mi West 9.2 mph 16.1 mph N/A   Clear
7:13 PM -22.0 °F -42.3 °F -29.2 °F 69% 29.92 in 10.0 mi West 9.2 mph - N/A   Clear
7:32 PM -22.0 °F -41.0 °F -29.2 °F 69% 29.91 in 10.0 mi West 8.1 mph - N/A   Clear
7:53 PM -23.8 °F -44.5 °F -29.2 °F 76% 29.91 in 10.0 mi West 9.2 mph 16.1 mph N/A   Clear
8:13 PM -22.0 °F -45.7 °F -29.2 °F 69% 29.91 in 10.0 mi West 12.7 mph 18.4 mph N/A   Clear
8:33 PM -23.8 °F -45.8 °F -29.2 °F 76% 29.91 in 10.0 mi West 10.4 mph 16.1 mph N/A   Clear
8:50 PM -23.8 °F -48.9 °F -29.2 °F 76% 29.91 in 10.0 mi West 13.8 mph 20.7 mph N/A   Clear
9:13 PM -23.8 °F -48.0 °F -29.2 °F 76% 29.91 in 10.0 mi West 12.7 mph 20.7 mph N/A   Scattered Clouds
9:33 PM -23.8 °F -45.8 °F -29.2 °F 76% 29.91 in 10.0 mi West 10.4 mph 21.9 mph N/A   Mostly Cloudy
9:52 PM -23.8 °F -48.0 °F -29.2 °F 76% 29.90 in 10.0 mi West 12.7 mph 19.6 mph N/A   Overcast
10:13 PM -23.8 °F -48.0 °F -29.2 °F 76% 29.89 in 10.0 mi West 12.7 mph - N/A   Overcast
10:33 PM -23.8 °F -44.5 °F -29.2 °F 76% 29.89 in 10.0 mi West 9.2 mph - N/A   Overcast
10:52 PM -23.8 °F -44.5 °F -29.2 °F 76% 29.88 in 10.0 mi West 9.2 mph - N/A   Overcast
11:13 PM -23.8 °F -43.2 °F -31.0 °F 69% 29.88 in 10.0 mi West 8.1 mph - N/A   Scattered Clouds
11:33 PM -25.6 °F -41.9 °F -31.0 °F 76% 29.87 in 10.0 mi West 5.8 mph - N/A   Clear
11:52 PM -25.6 °F -45.4 °F -32.8 °F 69% 29.87 in 10.0 mi West 8.1 mph - N/A   Clear